Time,TemperatureF,DewpointF,PressureIn,WindDirection,WindDirectionDegrees,WindSpeedMPH,WindSpeedGustMPH,Humidity,HourlyPrecipIn,Conditions,Clouds,dailyrainin,SoftwareType,DateUTC
2013-02-05 00:00:00,38.8,31.6,29.94,WSW,238,0.0,0.0,67,0.00,,,0.00,dv,2013-02-05 05:00:00,
2013-02-05 00:05:00,38.8,31.8,29.94,WSW,238,0.0,0.0,68,0.00,,,0.00,dv,2013-02-05 05:05:00,
2013-02-05 00:10:00,38.7,31.7,29.94,WSW,238,0.0,0.0,68,0.00,,,0.00,dv,2013-02-05 05:10:00,
2013-02-05 00:20:00,38.6,31.4,29.93,WSW,238,0.0,0.0,67,0.00,,,0.00,dv,2013-02-05 05:20:00,
2013-02-05 00:25:00,38.5,31.0,29.93,WSW,238,0.0,0.0,66,0.00,,,0.00,dv,2013-02-05 05:25:00,
2013-02-05 00:30:00,38.5,31.0,29.93,WSW,238,0.0,0.0,66,0.00,,,0.00,dv,2013-02-05 05:30:00,
2013-02-05 00:35:00,38.5,31.5,29.92,WSW,238,0.0,0.0,68,0.00,,,0.00,dv,2013-02-05 05:35:00,
2013-02-05 00:40:00,38.5,31.8,29.92,WSW,238,0.0,0.0,69,0.00,,,0.00,dv,2013-02-05 05:40:00,
2013-02-05 00:45:00,38.6,32.1,29.92,WSW,238,0.0,0.0,70,0.00,,,0.00,dv,2013-02-05 05:45:00,
2013-02-05 00:50:00,38.6,32.1,29.92,WSW,238,0.0,0.0,70,0.00,,,0.00,dv,2013-02-05 05:50:00,
2013-02-05 00:55:00,38.6,31.9,29.92,WSW,237,0.0,0.0,69,0.00,,,0.00,dv,2013-02-05 05:55:00,
2013-02-05 01:00:00,38.6,31.9,29.92,WSW,238,0.0,0.0,69,0.00,,,0.00,dv,2013-02-05 06:00:00,
2013-02-05 01:10:00,38.5,31.8,29.92,WSW,238,0.0,0.0,69,0.00,,,0.00,dv,2013-02-05 06:10:00,
2013-02-05 01:15:00,38.4,31.7,29.92,WSW,238,0.0,0.0,69,0.00,,,0.00,dv,2013-02-05 06:15:00,
2013-02-05 01:20:00,38.3,31.6,29.92,WSW,238,0.0,0.0,69,0.00,,,0.00,dv,2013-02-05 06:20:00,
2013-02-05 01:25:00,38.2,31.5,29.92,WSW,238,0.0,0.0,69,0.00,,,0.00,dv,2013-02-05 06:25:00,
2013-02-05 01:30:00,38.1,31.2,29.92,WSW,238,0.0,0.0,68,0.00,,,0.00,dv,2013-02-05 06:30:00,
2013-02-05 01:35:00,37.9,31.0,29.92,WSW,238,0.0,0.0,68,0.00,,,0.00,dv,2013-02-05 06:35:00,
2013-02-05 01:40:00,37.8,30.9,29.92,WSW,238,0.0,0.0,68,0.00,,,0.00,dv,2013-02-05 06:40:00,
2013-02-05 01:45:00,37.7,30.8,29.93,WSW,238,0.0,0.0,68,0.00,,,0.00,dv,2013-02-05 06:45:00,
2013-02-05 01:50:00,37.5,30.6,29.92,WSW,238,0.0,0.0,68,0.00,,,0.00,dv,2013-02-05 06:50:00,
2013-02-05 01:55:00,37.3,30.1,29.93,WSW,238,0.0,0.0,67,0.00,,,0.00,dv,2013-02-05 06:55:00,
2013-02-05 02:00:00,37.1,30.0,29.92,WSW,238,0.0,0.0,67,0.00,,,0.00,dv,2013-02-05 07:00:00,
2013-02-05 02:05:00,37.0,29.9,29.92,WSW,238,0.0,0.0,67,0.00,,,0.00,dv,2013-02-05 07:05:00,
2013-02-05 02:10:00,36.8,29.7,29.92,WSW,238,0.0,0.0,67,0.00,,,0.00,dv,2013-02-05 07:10:00,
2013-02-05 02:15:00,36.7,29.8,29.92,WSW,238,0.0,0.0,68,0.00,,,0.00,dv,2013-02-05 07:15:00,
2013-02-05 02:20:00,36.6,29.7,29.91,WSW,238,0.0,0.0,68,0.00,,,0.00,dv,2013-02-05 07:20:00,
2013-02-05 02:25:00,36.5,29.6,29.91,WSW,238,0.0,0.0,68,0.00,,,0.00,dv,2013-02-05 07:25:00,
2013-02-05 02:30:00,36.3,29.4,29.91,WSW,237,0.0,0.0,68,0.00,,,0.00,dv,2013-02-05 07:30:00,
2013-02-05 02:35:00,36.2,29.4,29.91,WSW,238,0.0,0.0,68,0.00,,,0.00,dv,2013-02-05 07:35:00,
2013-02-05 02:40:00,36.1,29.3,29.91,WSW,238,0.0,0.0,68,0.00,,,0.00,dv,2013-02-05 07:40:00,
2013-02-05 02:45:00,36.0,29.2,29.91,WSW,238,0.0,0.0,68,0.00,,,0.00,dv,2013-02-05 07:45:00,
2013-02-05 02:50:00,35.9,29.1,29.91,WSW,238,0.0,0.0,68,0.00,,,0.00,dv,2013-02-05 07:50:00,
2013-02-05 02:55:00,35.8,29.0,29.91,WSW,238,0.0,0.0,68,0.00,,,0.00,dv,2013-02-05 07:55:00,
2013-02-05 03:00:00,35.6,28.8,29.91,WSW,238,0.0,0.0,68,0.00,,,0.00,dv,2013-02-05 08:00:00,
2013-02-05 04:50:00,33.5,28.9,29.90,WSW,238,0.0,0.0,77,0.00,,,0.00,dv,2013-02-05 09:50:00,
2013-02-05 04:55:00,33.6,29.2,29.90,WSW,238,0.0,0.0,78,0.00,,,0.00,dv,2013-02-05 09:55:00,
2013-02-05 05:00:00,33.7,29.6,29.89,WSW,238,0.0,0.0,79,0.00,,,0.00,dv,2013-02-05 10:00:00,
2013-02-05 05:05:00,33.8,29.4,29.90,WSW,237,0.0,0.0,78,0.00,,,0.00,dv,2013-02-05 10:05:00,
2013-02-05 05:10:00,33.9,29.5,29.90,WSW,238,0.0,0.0,78,0.00,,,0.00,dv,2013-02-05 10:10:00,
2013-02-05 05:15:00,34.1,29.9,29.90,WSW,238,0.0,0.0,79,0.00,,,0.00,dv,2013-02-05 10:15:00,
2013-02-05 05:20:00,34.2,29.8,29.90,WSW,238,0.0,0.0,78,0.00,,,0.00,dv,2013-02-05 10:20:00,
2013-02-05 05:25:00,34.3,29.9,29.90,WSW,238,0.0,0.0,78,0.00,,,0.00,dv,2013-02-05 10:25:00,
2013-02-05 05:30:00,34.4,30.2,29.90,WSW,238,0.0,0.0,79,0.00,,,0.00,dv,2013-02-05 10:30:00,
2013-02-05 05:40:00,34.6,30.4,29.90,WSW,238,0.0,0.0,79,0.00,,,0.00,dv,2013-02-05 10:40:00,
2013-02-05 05:45:00,34.7,30.3,29.90,WSW,238,0.0,0.0,78,0.00,,,0.00,dv,2013-02-05 10:45:00,
2013-02-05 05:50:00,34.7,30.3,29.90,WSW,237,0.0,0.0,78,0.00,,,0.00,dv,2013-02-05 10:50:00,
2013-02-05 05:55:00,34.7,30.3,29.90,WSW,238,0.0,0.0,78,0.00,,,0.00,dv,2013-02-05 10:55:00,
2013-02-05 06:00:00,34.7,30.3,29.90,WSW,238,0.0,0.0,78,0.00,,,0.00,dv,2013-02-05 11:00:00,
2013-02-05 06:05:00,34.8,30.6,29.91,WSW,238,0.0,0.0,79,0.00,,,0.00,dv,2013-02-05 11:05:00,
2013-02-05 06:10:00,34.9,30.7,29.91,WSW,238,0.0,0.0,79,0.00,,,0.00,dv,2013-02-05 11:10:00,
2013-02-05 06:15:00,35.1,30.9,29.91,WSW,238,0.0,0.0,79,0.00,,,0.00,dv,2013-02-05 11:15:00,
2013-02-05 06:20:00,35.2,31.0,29.90,WSW,238,0.0,0.0,79,0.00,,,0.00,dv,2013-02-05 11:20:00,
2013-02-05 06:25:00,35.4,31.2,29.90,WSW,238,0.0,0.0,79,0.00,,,0.00,dv,2013-02-05 11:25:00,
2013-02-05 06:30:00,35.4,31.2,29.90,WSW,238,0.0,0.0,79,0.00,,,0.00,dv,2013-02-05 11:30:00,
2013-02-05 06:35:00,35.5,31.3,29.90,WSW,237,0.0,0.0,79,0.00,,,0.00,dv,2013-02-05 11:35:00,
2013-02-05 06:40:00,35.6,31.4,29.91,WSW,238,0.0,0.0,79,0.00,,,0.00,dv,2013-02-05 11:40:00,
2013-02-05 06:45:00,35.7,31.5,29.91,WSW,238,0.0,0.0,79,0.00,,,0.00,dv,2013-02-05 11:45:00,
2013-02-05 06:50:00,35.8,31.6,29.91,WSW,238,0.0,0.0,79,0.00,,,0.00,dv,2013-02-05 11:50:00,
2013-02-05 06:55:00,35.8,31.6,29.92,WSW,238,0.0,0.0,79,0.00,,,0.00,dv,2013-02-05 11:55:00,
2013-02-05 07:00:00,35.9,31.7,29.91,WSW,237,0.0,0.0,79,0.00,,,0.00,dv,2013-02-05 12:00:00,
2013-02-05 07:05:00,35.9,31.7,29.92,WSW,238,0.0,0.0,79,0.00,,,0.00,dv,2013-02-05 12:05:00,
2013-02-05 07:10:00,36.0,32.0,29.92,WSW,238,0.0,0.0,80,0.00,,,0.00,dv,2013-02-05 12:10:00,
2013-02-05 07:15:00,36.0,32.0,29.92,WSW,238,0.0,0.0,80,0.00,,,0.00,dv,2013-02-05 12:15:00,
2013-02-05 07:20:00,36.1,32.1,29.92,WSW,238,0.0,0.0,80,0.00,,,0.00,dv,2013-02-05 12:20:00,
2013-02-05 07:25:00,36.1,31.9,29.92,WSW,237,0.0,0.0,79,0.00,,,0.00,dv,2013-02-05 12:25:00,
2013-02-05 07:30:00,36.1,31.9,29.92,WSW,238,0.0,0.0,79,0.00,,,0.00,dv,2013-02-05 12:30:00,
2013-02-05 07:35:00,36.2,32.0,29.93,WSW,238,0.0,0.0,79,0.00,,,0.00,dv,2013-02-05 12:35:00,
2013-02-05 07:40:00,36.3,32.1,29.93,WSW,238,0.0,0.0,79,0.00,,,0.00,dv,2013-02-05 12:40:00,
2013-02-05 07:45:00,36.3,32.1,29.93,WSW,238,0.0,0.0,79,0.00,,,0.00,dv,2013-02-05 12:45:00,
2013-02-05 07:50:00,36.3,32.1,29.93,WSW,238,0.0,0.0,79,0.00,,,0.00,dv,2013-02-05 12:50:00,
2013-02-05 07:55:00,36.4,32.2,29.94,WSW,238,0.0,0.0,79,0.00,,,0.00,dv,2013-02-05 12:55:00,
2013-02-05 08:00:00,36.5,32.3,29.94,WSW,238,0.0,0.0,79,0.00,,,0.00,dv,2013-02-05 13:00:00,
2013-02-05 08:05:00,36.5,32.3,29.94,WSW,238,0.0,0.0,79,0.00,,,0.00,dv,2013-02-05 13:05:00,
2013-02-05 08:10:00,36.6,32.4,29.94,WSW,237,0.0,0.0,79,0.00,,,0.00,dv,2013-02-05 13:10:00,
2013-02-05 08:15:00,36.7,32.7,29.93,WSW,238,1.6,1.6,80,0.00,,,0.00,dv,2013-02-05 13:15:00,
2013-02-05 08:20:00,36.9,32.9,29.94,WSW,238,0.0,0.0,80,0.00,,,0.00,dv,2013-02-05 13:20:00,
2013-02-05 08:25:00,37.0,32.8,29.94,WSW,237,0.0,0.0,79,0.00,,,0.00,dv,2013-02-05 13:25:00,
2013-02-05 08:30:00,37.1,32.8,29.95,WSW,238,0.0,0.0,79,0.00,,,0.00,dv,2013-02-05 13:30:00,
2013-02-05 08:35:00,37.3,32.8,29.94,WSW,238,0.0,0.0,78,0.00,,,0.00,dv,2013-02-05 13:35:00,
2013-02-05 08:40:00,37.4,32.9,29.94,WSW,238,0.0,0.0,78,0.00,,,0.00,dv,2013-02-05 13:40:00,
2013-02-05 08:45:00,37.6,33.1,29.94,WSW,238,0.0,0.0,78,0.00,,,0.00,dv,2013-02-05 13:45:00,
2013-02-05 08:50:00,37.8,33.3,29.94,WSW,238,0.0,0.0,78,0.00,,,0.00,dv,2013-02-05 13:50:00,
2013-02-05 08:55:00,38.0,33.5,29.94,WSW,238,0.0,0.0,78,0.00,,,0.00,dv,2013-02-05 13:55:00,
2013-02-05 09:00:00,38.2,33.5,29.94,WSW,238,0.0,0.0,77,0.00,,,0.00,dv,2013-02-05 14:00:00,
2013-02-05 09:05:00,38.5,33.5,29.94,WSW,238,0.0,0.0,76,0.00,,,0.00,dv,2013-02-05 14:05:00,
2013-02-05 09:15:00,39.0,34.0,29.95,WSW,238,0.0,0.0,76,0.00,,,0.00,dv,2013-02-05 14:15:00,
2013-02-05 09:25:00,39.7,34.7,29.95,WSW,238,0.0,0.0,76,0.00,,,0.00,dv,2013-02-05 14:25:00,
2013-02-05 09:30:00,40.0,34.7,29.95,WSW,238,0.0,0.0,75,0.00,,,0.00,dv,2013-02-05 14:30:00,
2013-02-05 09:35:00,40.2,35.2,29.96,WSW,238,0.0,0.0,76,0.00,,,0.00,dv,2013-02-05 14:35:00,
2013-02-05 09:40:00,40.5,35.2,29.96,WSW,238,0.0,0.0,75,0.00,,,0.00,dv,2013-02-05 14:40:00,
2013-02-05 09:45:00,40.7,35.4,29.96,WSW,238,0.0,0.0,75,0.00,,,0.00,dv,2013-02-05 14:45:00,
2013-02-05 09:50:00,41.0,35.7,29.96,WSW,238,0.0,0.0,75,0.00,,,0.00,dv,2013-02-05 14:50:00,
2013-02-05 09:55:00,41.2,35.9,29.96,WSW,238,0.0,0.0,75,0.00,,,0.00,dv,2013-02-05 14:55:00,
2013-02-05 10:00:00,41.5,36.2,29.96,WSW,238,0.0,0.0,75,0.00,,,0.00,dv,2013-02-05 15:00:00,
2013-02-05 10:05:00,41.8,36.5,29.95,WSW,248,6.4,6.4,75,0.00,,,0.00,dv,2013-02-05 15:05:00,
2013-02-05 10:10:00,42.6,37.2,29.95,West,267,4.8,4.8,75,0.00,,,0.00,dv,2013-02-05 15:10:00,
2013-02-05 10:15:00,43.4,38.0,29.96,West,267,0.0,0.0,75,0.00,,,0.00,dv,2013-02-05 15:15:00,
2013-02-05 10:20:00,44.3,38.4,29.95,South,184,3.2,3.2,73,0.00,,,0.00,dv,2013-02-05 15:20:00,
2013-02-05 10:25:00,45.1,39.1,29.95,SW,221,3.2,3.2,73,0.00,,,0.00,dv,2013-02-05 15:25:00,
2013-02-05 10:30:00,45.8,39.3,29.96,North,5,11.3,11.3,71,0.00,,,0.00,dv,2013-02-05 15:30:00,
2013-02-05 10:35:00,46.3,39.5,29.96,West,280,11.3,11.3,70,0.00,,,0.00,dv,2013-02-05 15:35:00,
2013-02-05 10:40:00,46.8,40.0,29.96,West,269,12.9,12.9,70,0.00,,,0.00,dv,2013-02-05 15:40:00,
2013-02-05 10:45:00,47.1,40.3,29.96,SW,225,14.5,14.5,70,0.00,,,0.00,dv,2013-02-05 15:45:00,
2013-02-05 10:50:00,47.5,40.4,29.96,WSW,258,6.4,6.4,69,0.00,,,0.00,dv,2013-02-05 15:50:00,
2013-02-05 10:55:00,48.0,40.8,29.96,WNW,288,9.7,9.7,69,0.00,,,0.00,dv,2013-02-05 15:55:00,
2013-02-05 11:00:00,48.4,40.9,29.96,WSW,257,11.3,11.3,68,0.00,,,0.00,dv,2013-02-05 16:00:00,
2013-02-05 11:05:00,48.7,41.2,29.96,WSW,245,9.7,9.7,68,0.00,,,0.00,dv,2013-02-05 16:05:00,
2013-02-05 11:10:00,48.9,41.1,29.95,West,259,8.1,8.1,67,0.00,,,0.00,dv,2013-02-05 16:10:00,
2013-02-05 11:20:00,49.4,41.6,29.95,West,275,11.3,11.3,67,0.00,,,0.00,dv,2013-02-05 16:20:00,
2013-02-05 11:25:00,49.6,41.8,29.95,SW,234,12.9,12.9,67,0.00,,,0.00,dv,2013-02-05 16:25:00,
2013-02-05 11:30:00,50.0,42.5,29.95,WSW,255,9.7,9.7,68,0.00,,,0.00,dv,2013-02-05 16:30:00,
2013-02-05 11:35:00,50.6,42.8,29.95,WSW,258,11.3,11.3,67,0.00,,,0.00,dv,2013-02-05 16:35:00,
2013-02-05 11:40:00,51.0,43.1,29.96,WSW,256,9.7,9.7,67,0.00,,,0.00,dv,2013-02-05 16:40:00,
2013-02-05 11:45:00,51.1,42.6,29.95,SW,214,14.5,14.5,65,0.00,,,0.00,dv,2013-02-05 16:45:00,
2013-02-05 11:50:00,51.0,42.8,29.96,SW,234,19.3,19.3,66,0.00,,,0.00,dv,2013-02-05 16:50:00,
2013-02-05 11:55:00,50.9,42.5,29.96,SW,220,11.3,11.3,65,0.00,,,0.00,dv,2013-02-05 16:55:00,
2013-02-05 12:00:00,50.8,42.7,29.96,WSW,240,14.5,14.5,66,0.00,,,0.00,dv,2013-02-05 17:00:00,
2013-02-05 12:05:00,50.7,42.6,29.97,WSW,249,8.1,8.1,66,0.00,,,0.00,dv,2013-02-05 17:05:00,
2013-02-05 12:10:00,50.6,42.2,29.96,SW,222,12.9,12.9,65,0.00,,,0.00,dv,2013-02-05 17:10:00,
2013-02-05 12:15:00,50.3,42.2,29.96,SW,236,14.5,14.5,66,0.00,,,0.00,dv,2013-02-05 17:15:00,
2013-02-05 12:25:00,50.1,42.0,29.96,West,280,11.3,11.3,66,0.00,,,0.00,dv,2013-02-05 17:25:00,
2013-02-05 12:30:00,50.1,42.0,29.96,West,268,9.7,9.7,66,0.00,,,0.00,dv,2013-02-05 17:30:00,
2013-02-05 12:35:00,50.1,42.0,29.96,West,272,11.3,11.3,66,0.00,,,0.00,dv,2013-02-05 17:35:00,
2013-02-05 12:40:00,50.0,41.9,29.96,SSW,203,11.3,11.3,66,0.00,,,0.00,dv,2013-02-05 17:40:00,
2013-02-05 12:45:00,50.0,42.2,29.95,SSW,209,8.1,8.1,67,0.00,,,0.00,dv,2013-02-05 17:45:00,
2013-02-05 12:50:00,50.3,42.5,29.95,West,274,12.9,12.9,67,0.00,,,0.00,dv,2013-02-05 17:50:00,
2013-02-05 12:55:00,50.6,42.8,29.95,WSW,258,6.4,6.4,67,0.00,,,0.00,dv,2013-02-05 17:55:00,
2013-02-05 13:00:00,50.8,42.7,29.94,SW,231,14.5,14.5,66,0.00,,,0.00,dv,2013-02-05 18:00:00,
2013-02-05 13:05:00,50.9,42.7,29.94,WSW,239,12.9,12.9,66,0.00,,,0.00,dv,2013-02-05 18:05:00,
2013-02-05 13:10:00,50.8,42.7,29.94,West,265,11.3,11.3,66,0.00,,,0.00,dv,2013-02-05 18:10:00,
2013-02-05 13:15:00,50.9,43.0,29.94,WNW,282,8.1,8.1,67,0.00,,,0.00,dv,2013-02-05 18:15:00,
2013-02-05 13:20:00,51.0,42.8,29.93,WNW,286,8.1,8.1,66,0.00,,,0.00,dv,2013-02-05 18:20:00,
2013-02-05 13:25:00,51.1,42.9,29.93,West,271,4.8,4.8,66,0.00,,,0.00,dv,2013-02-05 18:25:00,
2013-02-05 13:30:00,51.3,43.1,29.94,West,276,6.4,6.4,66,0.00,,,0.00,dv,2013-02-05 18:30:00,
2013-02-05 13:35:00,51.4,42.9,29.93,West,261,9.7,9.7,65,0.00,,,0.00,dv,2013-02-05 18:35:00,
2013-02-05 13:40:00,51.5,43.0,29.93,West,275,6.4,6.4,65,0.00,,,0.00,dv,2013-02-05 18:40:00,
2013-02-05 13:45:00,51.7,43.2,29.92,North,357,6.4,6.4,65,0.00,,,0.00,dv,2013-02-05 18:45:00,
2013-02-05 13:50:00,51.7,43.2,29.92,SW,233,12.9,12.9,65,0.00,,,0.00,dv,2013-02-05 18:50:00,
2013-02-05 13:55:00,51.7,43.5,29.92,West,262,9.7,9.7,66,0.00,,,0.00,dv,2013-02-05 18:55:00,
2013-02-05 14:00:00,51.8,43.3,29.91,SW,235,8.1,8.1,65,0.00,,,0.00,dv,2013-02-05 19:00:00,
2013-02-05 14:05:00,52.0,43.8,29.92,SW,224,14.5,14.5,66,0.00,,,0.00,dv,2013-02-05 19:05:00,
2013-02-05 14:10:00,52.3,43.8,29.91,SW,236,12.9,12.9,65,0.00,,,0.00,dv,2013-02-05 19:10:00,
2013-02-05 14:15:00,52.5,44.0,29.91,SW,223,9.7,9.7,65,0.00,,,0.00,dv,2013-02-05 19:15:00,
2013-02-05 14:25:00,53.3,44.7,29.91,West,270,12.9,12.9,65,0.00,,,0.00,dv,2013-02-05 19:25:00,
2013-02-05 14:30:00,53.6,45.0,29.92,SSE,160,17.7,17.7,65,0.00,,,0.00,dv,2013-02-05 19:30:00,
2013-02-05 14:35:00,53.8,45.2,29.92,West,268,14.5,14.5,65,0.00,,,0.00,dv,2013-02-05 19:35:00,
2013-02-05 14:40:00,54.0,45.1,29.91,SSW,201,11.3,11.3,64,0.00,,,0.00,dv,2013-02-05 19:40:00,
2013-02-05 14:45:00,53.9,45.0,29.90,WSW,251,14.5,14.5,64,0.00,,,0.00,dv,2013-02-05 19:45:00,
2013-02-05 14:50:00,53.6,44.7,29.91,SW,233,20.9,20.9,64,0.00,,,0.00,dv,2013-02-05 19:50:00,
2013-02-05 15:00:00,53.6,45.3,29.90,WSW,253,20.9,20.9,66,0.00,,,0.00,dv,2013-02-05 20:00:00,
2013-02-05 15:05:00,53.8,45.5,29.90,SW,220,16.1,16.1,66,0.00,,,0.00,dv,2013-02-05 20:05:00,
2013-02-05 15:10:00,54.1,45.5,29.91,SW,229,16.1,16.1,65,0.00,,,0.00,dv,2013-02-05 20:10:00,
2013-02-05 15:15:00,54.2,45.3,29.90,SW,236,14.5,14.5,64,0.00,,,0.00,dv,2013-02-05 20:15:00,
2013-02-05 15:20:00,54.3,45.7,29.90,SW,216,20.9,20.9,65,0.00,,,0.00,dv,2013-02-05 20:20:00,
2013-02-05 15:25:00,54.2,45.6,29.91,SW,218,12.9,12.9,65,0.00,,,0.00,dv,2013-02-05 20:25:00,
2013-02-05 15:35:00,54.1,45.2,29.91,SW,216,8.1,8.1,64,0.00,,,0.00,dv,2013-02-05 20:35:00,
2013-02-05 15:45:00,53.3,45.0,29.90,SSW,206,12.9,12.9,66,0.00,,,0.00,dv,2013-02-05 20:45:00,
2013-02-05 15:55:00,52.9,44.6,29.91,SW,216,11.3,11.3,66,0.00,,,0.00,dv,2013-02-05 20:55:00,
2013-02-05 16:00:00,52.7,44.7,29.91,SW,232,12.9,12.9,67,0.00,,,0.00,dv,2013-02-05 21:00:00,
2013-02-05 16:05:00,52.8,45.1,29.91,WNW,286,14.5,14.5,68,0.00,,,0.00,dv,2013-02-05 21:05:00,
2013-02-05 16:10:00,52.8,45.4,29.91,WSW,254,12.9,12.9,69,0.00,,,0.00,dv,2013-02-05 21:10:00,
2013-02-05 16:15:00,52.8,45.7,29.92,WSW,245,11.3,11.3,70,0.00,,,0.00,dv,2013-02-05 21:15:00,
2013-02-05 16:20:00,52.7,45.3,29.91,NW,311,11.3,11.3,69,0.00,,,0.00,dv,2013-02-05 21:20:00,
2013-02-05 16:25:00,52.7,45.6,29.91,WSW,241,11.3,11.3,70,0.00,,,0.00,dv,2013-02-05 21:25:00,
2013-02-05 16:30:00,52.7,45.6,29.91,SW,233,12.9,12.9,70,0.00,,,0.00,dv,2013-02-05 21:30:00,
2013-02-05 16:35:00,52.7,45.9,29.91,SW,235,11.3,11.3,71,0.00,,,0.00,dv,2013-02-05 21:35:00,
2013-02-05 16:40:00,52.6,45.5,29.91,WSW,244,12.9,12.9,70,0.00,,,0.00,dv,2013-02-05 21:40:00,
2013-02-05 16:45:00,52.6,45.8,29.91,SW,229,8.1,8.1,71,0.00,,,0.00,dv,2013-02-05 21:45:00,
2013-02-05 16:50:00,52.5,45.7,29.91,West,259,9.7,9.7,71,0.00,,,0.00,dv,2013-02-05 21:50:00,
2013-02-05 16:55:00,52.5,45.7,29.91,SSW,203,8.1,8.1,71,0.00,,,0.00,dv,2013-02-05 21:55:00,
2013-02-05 17:05:00,52.6,46.0,29.90,SSE,164,6.4,6.4,72,0.00,,,0.00,dv,2013-02-05 22:05:00,
2013-02-05 17:10:00,52.6,46.0,29.90,WNW,290,8.1,8.1,72,0.00,,,0.00,dv,2013-02-05 22:10:00,
2013-02-05 17:15:00,52.6,46.0,29.91,SW,230,14.5,14.5,72,0.00,,,0.00,dv,2013-02-05 22:15:00,
2013-02-05 17:20:00,52.6,46.0,29.91,West,274,11.3,11.3,72,0.00,,,0.00,dv,2013-02-05 22:20:00,
2013-02-05 17:25:00,52.6,45.8,29.91,WSW,257,11.3,11.3,71,0.00,,,0.00,dv,2013-02-05 22:25:00,
2013-02-05 17:30:00,52.5,45.9,29.91,WSW,246,6.4,6.4,72,0.00,,,0.00,dv,2013-02-05 22:30:00,
2013-02-05 17:35:00,52.4,45.9,29.91,SSE,162,9.7,9.7,72,0.00,,,0.00,dv,2013-02-05 22:35:00,
2013-02-05 17:40:00,52.2,45.7,29.91,WNW,303,6.4,6.4,72,0.00,,,0.00,dv,2013-02-05 22:40:00,
2013-02-05 17:45:00,52.0,45.5,29.91,WNW,286,3.2,3.2,72,0.00,,,0.00,dv,2013-02-05 22:45:00,
2013-02-05 17:55:00,51.6,45.4,29.91,SW,226,6.4,6.4,73,0.00,,,0.00,dv,2013-02-05 22:55:00,
2013-02-05 18:00:00,51.4,45.4,29.91,South,190,3.2,3.2,74,0.00,,,0.00,dv,2013-02-05 23:00:00,
2013-02-05 18:05:00,51.1,45.1,29.91,SSW,194,3.2,3.2,74,0.00,,,0.00,dv,2013-02-05 23:05:00,
2013-02-05 18:10:00,51.0,45.3,29.92,SSW,194,1.6,1.6,75,0.00,,,0.00,dv,2013-02-05 23:10:00,
2013-02-05 18:15:00,50.8,45.1,29.92,SW,236,1.6,1.6,75,0.00,,,0.00,dv,2013-02-05 23:15:00,
2013-02-05 18:20:00,50.7,45.0,29.92,WSW,242,3.2,3.2,75,0.00,,,0.00,dv,2013-02-05 23:20:00,
2013-02-05 18:25:00,50.4,45.0,29.92,WSW,242,1.6,1.6,76,0.00,,,0.00,dv,2013-02-05 23:25:00,
2013-02-05 18:30:00,50.3,44.9,29.92,WSW,242,0.0,0.0,76,0.00,,,0.00,dv,2013-02-05 23:30:00,
2013-02-05 18:40:00,50.1,44.9,29.92,WSW,242,0.0,0.0,77,0.00,,,0.00,dv,2013-02-05 23:40:00,
2013-02-05 18:45:00,50.0,44.9,29.92,WSW,242,1.6,1.6,77,0.00,,,0.00,dv,2013-02-05 23:45:00,
2013-02-05 18:50:00,49.9,44.8,29.93,WSW,242,0.0,0.0,77,0.00,,,0.00,dv,2013-02-05 23:50:00,
2013-02-05 18:55:00,49.8,44.7,29.93,WSW,242,0.0,0.0,77,0.00,,,0.00,dv,2013-02-05 23:55:00,
2013-02-05 19:00:00,49.7,44.8,29.92,WSW,255,1.6,1.6,78,0.00,,,0.00,dv,2013-02-06 00:00:00,
2013-02-05 19:05:00,49.6,44.7,29.92,WSW,255,1.6,1.6,78,0.00,,,0.00,dv,2013-02-06 00:05:00,
2013-02-05 19:10:00,49.4,44.5,29.93,WSW,255,1.6,1.6,78,0.00,,,0.00,dv,2013-02-06 00:10:00,
2013-02-05 19:15:00,49.3,44.4,29.93,WSW,255,1.6,1.6,78,0.00,,,0.00,dv,2013-02-06 00:15:00,
2013-02-05 19:20:00,49.1,44.5,29.93,WSW,255,0.0,0.0,79,0.00,,,0.00,dv,2013-02-06 00:20:00,
2013-02-05 19:25:00,49.0,44.4,29.93,WSW,255,1.6,1.6,79,0.00,,,0.00,dv,2013-02-06 00:25:00,
2013-02-05 19:30:00,48.9,44.5,29.93,WSW,255,1.6,1.6,80,0.00,,,0.00,dv,2013-02-06 00:30:00,
2013-02-05 19:35:00,48.8,44.4,29.93,WSW,255,0.0,0.0,80,0.00,,,0.00,dv,2013-02-06 00:35:00,
2013-02-05 19:40:00,48.7,44.3,29.92,WSW,255,0.0,0.0,80,0.00,,,0.00,dv,2013-02-06 00:40:00,
2013-02-05 19:45:00,48.6,44.2,29.93,WSW,255,0.0,0.0,80,0.00,,,0.00,dv,2013-02-06 00:45:00,
2013-02-05 19:55:00,48.3,43.9,29.93,WSW,255,0.0,0.0,80,0.00,,,0.00,dv,2013-02-06 00:55:00,
2013-02-05 20:05:00,47.7,43.1,29.95,WSW,255,0.0,0.0,79,0.00,,,0.00,dv,2013-02-06 01:05:00,
2013-02-05 20:10:00,47.6,43.3,29.94,WSW,255,0.0,0.0,80,0.00,,,0.00,dv,2013-02-06 01:10:00,
2013-02-05 20:15:00,47.4,43.1,29.94,WSW,255,0.0,0.0,80,0.00,,,0.00,dv,2013-02-06 01:15:00,
2013-02-05 20:20:00,47.2,43.1,29.95,WSW,255,0.0,0.0,81,0.00,,,0.00,dv,2013-02-06 01:20:00,
2013-02-05 20:25:00,47.1,43.0,29.95,WSW,255,0.0,0.0,81,0.00,,,0.00,dv,2013-02-06 01:25:00,
2013-02-05 20:30:00,47.0,43.2,29.95,WSW,255,0.0,0.0,82,0.00,,,0.00,dv,2013-02-06 01:30:00,
2013-02-05 20:35:00,46.8,43.0,29.95,WSW,255,0.0,0.0,82,0.00,,,0.00,dv,2013-02-06 01:35:00,
2013-02-05 20:40:00,46.9,43.3,29.95,WSW,255,0.0,0.0,83,0.00,,,0.00,dv,2013-02-06 01:40:00,
2013-02-05 20:45:00,46.9,43.5,29.95,WSW,255,0.0,0.0,84,0.00,,,0.00,dv,2013-02-06 01:45:00,
2013-02-05 20:50:00,46.9,43.5,29.94,WSW,255,0.0,0.0,84,0.00,,,0.00,dv,2013-02-06 01:50:00,
2013-02-05 20:55:00,46.9,43.5,29.94,WSW,255,0.0,0.0,84,0.00,,,0.00,dv,2013-02-06 01:55:00,
2013-02-05 21:00:00,46.8,43.2,29.94,WSW,255,0.0,0.0,83,0.00,,,0.00,dv,2013-02-06 02:00:00,
2013-02-05 21:05:00,46.7,43.1,29.95,WSW,255,0.0,0.0,83,0.00,,,0.00,dv,2013-02-06 02:05:00,
2013-02-05 21:10:00,46.7,43.1,29.94,WSW,255,0.0,0.0,83,0.00,,,0.00,dv,2013-02-06 02:10:00,
2013-02-05 21:15:00,46.5,42.9,29.95,WSW,255,0.0,0.0,83,0.00,,,0.00,dv,2013-02-06 02:15:00,
2013-02-05 21:20:00,46.4,42.8,29.95,WSW,255,0.0,0.0,83,0.00,,,0.00,dv,2013-02-06 02:20:00,
2013-02-05 21:30:00,46.1,42.7,29.95,WSW,255,0.0,0.0,84,0.00,,,0.00,dv,2013-02-06 02:30:00,
2013-02-05 21:40:00,46.0,42.6,29.95,WSW,255,0.0,0.0,84,0.00,,,0.00,dv,2013-02-06 02:40:00,
2013-02-05 21:45:00,45.9,42.8,29.95,WSW,255,0.0,0.0,85,0.00,,,0.00,dv,2013-02-06 02:45:00,
2013-02-05 21:50:00,45.8,42.7,29.95,WSW,255,0.0,0.0,85,0.00,,,0.00,dv,2013-02-06 02:50:00,
2013-02-05 21:55:00,45.8,42.7,29.95,WSW,255,0.0,0.0,85,0.00,,,0.00,dv,2013-02-06 02:55:00,
2013-02-05 22:05:00,45.8,43.1,29.95,WSW,255,1.6,1.6,87,0.00,,,0.00,dv,2013-02-06 03:05:00,
2013-02-05 22:10:00,45.9,43.2,29.96,WSW,255,0.0,0.0,87,0.00,,,0.00,dv,2013-02-06 03:10:00,
2013-02-05 22:15:00,45.9,43.2,29.96,WSW,255,3.2,3.2,87,0.00,,,0.00,dv,2013-02-06 03:15:00,
2013-02-05 22:20:00,46.0,43.7,29.96,WSW,257,3.2,3.2,89,0.00,,,0.00,dv,2013-02-06 03:20:00,
2013-02-05 22:25:00,46.3,44.0,29.97,West,276,4.8,4.8,89,0.00,,,0.00,dv,2013-02-06 03:25:00,
2013-02-05 22:30:00,46.5,44.5,29.96,West,273,3.2,3.2,90,0.00,,,0.00,dv,2013-02-06 03:30:00,
2013-02-05 22:40:00,46.7,44.7,29.96,NW,311,3.2,3.2,90,0.00,,,0.00,dv,2013-02-06 03:40:00,
2013-02-05 22:45:00,46.7,44.7,29.97,SSE,167,3.2,3.2,90,0.00,,,0.00,dv,2013-02-06 03:45:00,
2013-02-05 22:50:00,46.8,44.8,29.97,NW,318,1.6,1.6,90,0.00,,,0.00,dv,2013-02-06 03:50:00,
2013-02-05 22:55:00,46.8,44.8,29.97,NW,318,3.2,3.2,90,0.00,,,0.00,dv,2013-02-06 03:55:00,
2013-02-05 23:00:00,46.9,44.9,29.97,NW,306,3.2,3.2,90,0.00,,,0.00,dv,2013-02-06 04:00:00,
2013-02-05 23:05:00,46.8,44.8,29.97,WNW,291,4.8,4.8,90,0.00,,,0.00,dv,2013-02-06 04:05:00,
2013-02-05 23:10:00,46.8,44.8,29.97,WNW,291,3.2,3.2,90,0.00,,,0.00,dv,2013-02-06 04:10:00,
2013-02-05 23:15:00,46.8,44.8,29.97,SW,226,4.8,4.8,90,0.00,,,0.00,dv,2013-02-06 04:15:00,
2013-02-05 23:20:00,46.6,44.6,29.97,SW,225,3.2,3.2,90,0.00,,,0.00,dv,2013-02-06 04:20:00,
2013-02-05 23:25:00,46.5,44.5,29.96,SW,226,3.2,3.2,90,0.00,,,0.00,dv,2013-02-06 04:25:00,
2013-02-05 23:30:00,46.5,44.5,29.97,WNW,282,6.4,6.4,90,0.00,,,0.00,dv,2013-02-06 04:30:00,
2013-02-05 23:35:00,46.5,44.7,29.97,West,270,4.8,4.8,91,0.00,,,0.00,dv,2013-02-06 04:35:00,
2013-02-05 23:40:00,46.5,44.5,29.97,West,270,0.0,0.0,90,0.00,,,0.00,dv,2013-02-06 04:40:00,
2013-02-05 23:45:00,46.5,44.7,29.97,West,270,0.0,0.0,91,0.00,,,0.00,dv,2013-02-06 04:45:00,
2013-02-05 23:50:00,46.4,44.4,29.97,West,270,1.6,1.6,90,0.00,,,0.00,dv,2013-02-06 04:50:00,
2013-02-05 23:55:00,46.3,44.3,29.97,SW,236,1.6,1.6,90,0.00,,,0.00,dv,2013-02-06 04:55:00,